Time,TemperatureF,DewpointF,PressureIn,WindDirection,WindDirectionDegrees,WindSpeedMPH,WindSpeedGustMPH,Humidity,HourlyPrecipIn,Conditions,Clouds,dailyrainin,SoftwareType,DateUTC
2013-04-16 00:03:00,30.2,26.5,30.09,NNE,16,0.0,0.0,86,0.00,,,0.00,Weather View 32 v70,2013-04-16 07:03:00,
2013-04-16 00:08:00,30.0,26.3,30.09,NNE,16,0.0,0.0,86,0.00,,,0.00,Weather View 32 v70,2013-04-16 07:08:00,
2013-04-16 00:13:00,29.8,26.2,30.09,NNE,16,0.0,0.0,86,0.00,,,0.00,Weather View 32 v70,2013-04-16 07:13:00,
2013-04-16 00:15:00,29.8,26.2,30.09,NNE,16,0.0,0.0,86,0.00,,,0.00,Weather View 32 v70,2013-04-16 07:15:00,
2013-04-16 00:18:00,29.7,26.0,30.09,NNE,16,0.0,0.0,86,0.00,,,0.00,Weather View 32 v70,2013-04-16 07:18:00,
2013-04-16 00:23:00,29.7,26.0,30.09,NNE,16,0.0,0.0,86,0.00,,,0.00,Weather View 32 v70,2013-04-16 07:23:00,
2013-04-16 00:28:00,29.7,26.0,30.09,NNE,16,0.0,0.0,86,0.00,,,0.00,Weather View 32 v70,2013-04-16 07:28:00,
2013-04-16 00:33:00,29.5,25.8,30.09,NNE,16,0.0,0.0,86,0.00,,,0.00,Weather View 32 v70,2013-04-16 07:33:00,
2013-04-16 00:38:00,29.5,25.8,30.09,NNE,16,0.0,0.0,86,0.00,,,0.00,Weather View 32 v70,2013-04-16 07:38:00,
2013-04-16 00:43:00,29.5,25.8,30.09,NNE,16,0.0,0.0,86,0.00,,,0.00,Weather View 32 v70,2013-04-16 07:43:00,
2013-04-16 00:48:00,29.5,25.8,30.09,NNE,16,0.0,0.0,86,0.00,,,0.00,Weather View 32 v70,2013-04-16 07:48:00,
2013-04-16 00:53:00,29.5,25.8,30.09,NNE,16,0.0,0.0,86,0.00,,,0.00,Weather View 32 v70,2013-04-16 07:53:00,
2013-04-16 00:58:00,29.5,26.1,30.09,NNE,16,0.0,0.0,87,0.00,,,0.00,Weather View 32 v70,2013-04-16 07:58:00,
2013-04-16 01:03:00,29.7,26.3,30.09,NNE,16,0.0,0.0,87,0.00,,,0.00,Weather View 32 v70,2013-04-16 08:03:00,
2013-04-16 01:08:00,29.7,26.3,30.09,NNE,16,0.0,0.0,87,0.00,,,0.00,Weather View 32 v70,2013-04-16 08:08:00,
2013-04-16 01:13:00,29.8,26.4,30.09,NNE,16,0.0,0.0,87,0.00,,,0.00,Weather View 32 v70,2013-04-16 08:13:00,
2013-04-16 01:18:00,29.8,26.4,30.09,NNE,16,0.0,0.0,87,0.00,,,0.00,Weather View 32 v70,2013-04-16 08:18:00,
2013-04-16 01:23:00,29.8,26.4,30.09,NNE,16,0.0,0.0,87,0.00,,,0.00,Weather View 32 v70,2013-04-16 08:23:00,
2013-04-16 01:28:00,29.8,26.4,30.09,NNE,16,0.0,0.0,87,0.00,,,0.00,Weather View 32 v70,2013-04-16 08:28:00,
2013-04-16 01:33:00,30.2,26.8,30.09,NNE,16,0.0,0.0,87,0.00,,,0.00,Weather View 32 v70,2013-04-16 08:33:00,
2013-04-16 01:38:00,30.4,27.0,30.09,NNE,16,0.0,0.0,87,0.00,,,0.00,Weather View 32 v70,2013-04-16 08:38:00,
2013-04-16 01:43:00,30.4,27.0,30.09,NNE,16,0.0,0.0,87,0.00,,,0.00,Weather View 32 v70,2013-04-16 08:43:00,
2013-04-16 01:48:00,30.6,27.2,30.09,NNE,16,0.0,0.0,87,0.00,,,0.00,Weather View 32 v70,2013-04-16 08:48:00,
2013-04-16 01:53:00,30.6,26.9,30.09,NNE,16,0.0,0.0,86,0.00,,,0.00,Weather View 32 v70,2013-04-16 08:53:00,
2013-04-16 01:58:00,30.2,26.5,30.09,NNE,16,0.0,0.0,86,0.00,,,0.00,Weather View 32 v70,2013-04-16 08:58:00,
2013-04-16 02:03:00,30.2,26.5,30.09,NNE,16,0.0,0.0,86,0.00,,,0.00,Weather View 32 v70,2013-04-16 09:03:00,
2013-04-16 02:08:00,30.2,26.5,30.09,NNE,16,0.0,0.0,86,0.00,,,0.00,Weather View 32 v70,2013-04-16 09:08:00,
2013-04-16 02:13:00,30.2,26.5,30.09,NNE,16,0.0,0.0,86,0.00,,,0.00,Weather View 32 v70,2013-04-16 09:13:00,
2013-04-16 02:18:00,30.0,26.3,30.09,NNE,16,0.0,0.0,86,0.00,,,0.00,Weather View 32 v70,2013-04-16 09:18:00,
2013-04-16 02:23:00,30.0,26.3,30.09,NNE,16,0.0,0.0,86,0.00,,,0.00,Weather View 32 v70,2013-04-16 09:23:00,
2013-04-16 02:28:00,30.0,26.3,30.09,NNE,16,0.0,0.0,86,0.00,,,0.00,Weather View 32 v70,2013-04-16 09:28:00,
2013-04-16 02:33:00,29.8,26.2,30.09,NNE,16,0.0,0.0,86,0.00,,,0.00,Weather View 32 v70,2013-04-16 09:33:00,
2013-04-16 02:38:00,29.8,26.2,30.09,NNE,16,0.0,0.0,86,0.00,,,0.00,Weather View 32 v70,2013-04-16 09:38:00,
2013-04-16 02:43:00,29.7,26.0,30.09,NNE,16,0.0,0.0,86,0.00,,,0.00,Weather View 32 v70,2013-04-16 09:43:00,
2013-04-16 02:48:00,29.7,26.0,30.09,NNE,16,0.0,0.0,86,0.00,,,0.00,Weather View 32 v70,2013-04-16 09:48:00,
2013-04-16 02:53:00,29.7,26.0,30.09,NNE,16,0.0,0.0,86,0.00,,,0.00,Weather View 32 v70,2013-04-16 09:53:00,
2013-04-16 02:58:00,29.7,26.0,30.09,NNE,16,0.0,0.0,86,0.00,,,0.00,Weather View 32 v70,2013-04-16 09:58:00,
2013-04-16 03:03:00,29.7,26.0,30.09,NNE,16,0.0,0.0,86,0.00,,,0.00,Weather View 32 v70,2013-04-16 10:03:00,
2013-04-16 03:08:00,29.7,26.0,30.09,NNE,16,0.0,0.0,86,0.00,,,0.00,Weather View 32 v70,2013-04-16 10:08:00,
2013-04-16 03:13:00,29.7,26.0,30.09,NNE,16,0.0,0.0,86,0.00,,,0.00,Weather View 32 v70,2013-04-16 10:13:00,
2013-04-16 03:18:00,29.5,25.8,30.09,NNE,16,0.0,0.0,86,0.00,,,0.00,Weather View 32 v70,2013-04-16 10:18:00,
2013-04-16 03:23:00,29.5,25.8,30.09,NNE,16,0.0,0.0,86,0.00,,,0.00,Weather View 32 v70,2013-04-16 10:23:00,
2013-04-16 03:28:00,29.5,25.5,30.09,NNE,16,0.0,0.0,85,0.00,,,0.00,Weather View 32 v70,2013-04-16 10:28:00,
2013-04-16 03:33:00,29.3,25.4,30.09,NNE,16,0.0,0.0,85,0.00,,,0.00,Weather View 32 v70,2013-04-16 10:33:00,
2013-04-16 03:38:00,29.3,25.4,30.09,NNE,16,0.0,0.0,85,0.00,,,0.00,Weather View 32 v70,2013-04-16 10:38:00,
2013-04-16 03:43:00,28.9,25.0,30.09,NNE,16,0.0,0.0,85,0.00,,,0.00,Weather View 32 v70,2013-04-16 10:43:00,
2013-04-16 03:49:00,28.8,24.8,30.09,NNE,16,0.0,0.0,85,0.00,,,0.00,Weather View 32 v70,2013-04-16 10:49:00,
2013-04-16 03:54:00,28.6,24.4,30.09,NNE,16,0.0,0.0,84,0.00,,,0.00,Weather View 32 v70,2013-04-16 10:54:00,
2013-04-16 03:59:00,28.2,24.3,30.09,NNE,16,0.0,0.0,85,0.00,,,0.00,Weather View 32 v70,2013-04-16 10:59:00,
2013-04-16 04:04:00,27.9,23.7,30.12,NNE,16,0.0,0.0,84,0.00,,,0.00,Weather View 32 v70,2013-04-16 11:04:00,
2013-04-16 04:09:00,27.7,23.5,30.12,NNE,16,0.0,0.0,84,0.00,,,0.00,Weather View 32 v70,2013-04-16 11:09:00,
2013-04-16 04:14:00,27.5,23.3,30.12,NNE,16,0.0,0.0,84,0.00,,,0.00,Weather View 32 v70,2013-04-16 11:14:00,
2013-04-16 04:19:00,27.5,23.6,30.12,NNE,16,0.0,0.0,85,0.00,,,0.00,Weather View 32 v70,2013-04-16 11:19:00,
2013-04-16 04:24:00,27.5,23.6,30.12,NNE,16,0.0,0.0,85,0.00,,,0.00,Weather View 32 v70,2013-04-16 11:24:00,
2013-04-16 04:29:00,27.5,23.6,30.12,NNE,16,0.0,0.0,85,0.00,,,0.00,Weather View 32 v70,2013-04-16 11:29:00,
2013-04-16 04:34:00,27.3,23.4,30.09,NNE,16,0.0,0.0,85,0.00,,,0.00,Weather View 32 v70,2013-04-16 11:34:00,
2013-04-16 04:39:00,27.5,23.9,30.09,NNE,16,0.0,0.0,86,0.00,,,0.00,Weather View 32 v70,2013-04-16 11:39:00,
2013-04-16 04:44:00,27.9,24.2,30.09,NNE,16,0.0,0.0,86,0.00,,,0.00,Weather View 32 v70,2013-04-16 11:44:00,
2013-04-16 04:49:00,27.9,24.2,30.12,NNE,16,0.0,0.0,86,0.00,,,0.00,Weather View 32 v70,2013-04-16 11:49:00,
2013-04-16 04:54:00,28.0,24.4,30.12,NNE,16,0.0,0.0,86,0.00,,,0.00,Weather View 32 v70,2013-04-16 11:54:00,
2013-04-16 04:59:00,28.2,24.6,30.12,NNE,16,0.0,0.0,86,0.00,,,0.00,Weather View 32 v70,2013-04-16 11:59:00,
2013-04-16 05:04:00,28.4,24.7,30.12,NNE,16,0.0,0.0,86,0.00,,,0.00,Weather View 32 v70,2013-04-16 12:04:00,
2013-04-16 05:09:00,28.6,24.9,30.12,NNE,29,0.0,0.0,86,0.00,,,0.00,Weather View 32 v70,2013-04-16 12:09:00,
2013-04-16 05:14:00,28.8,24.8,30.12,NNE,29,0.0,0.0,85,0.00,,,0.00,Weather View 32 v70,2013-04-16 12:14:00,
2013-04-16 05:19:00,28.9,25.0,30.12,NNE,29,0.0,0.0,85,0.00,,,0.00,Weather View 32 v70,2013-04-16 12:19:00,
2013-04-16 05:24:00,29.3,25.4,30.12,NNE,29,0.0,0.0,85,0.00,,,0.00,Weather View 32 v70,2013-04-16 12:24:00,
2013-04-16 05:29:00,29.3,25.1,30.12,NNE,29,0.0,0.0,84,0.00,,,0.00,Weather View 32 v70,2013-04-16 12:29:00,
2013-04-16 05:34:00,29.3,25.1,30.12,NNE,29,0.0,0.0,84,0.00,,,0.00,Weather View 32 v70,2013-04-16 12:34:00,
2013-04-16 05:39:00,29.1,24.9,30.12,NNE,29,0.0,0.0,84,0.00,,,0.00,Weather View 32 v70,2013-04-16 12:39:00,
2013-04-16 05:44:00,29.1,24.6,30.12,NNE,29,0.0,0.0,83,0.00,,,0.00,Weather View 32 v70,2013-04-16 12:44:00,
2013-04-16 05:49:00,29.3,25.1,30.12,NE,37,0.0,0.0,84,0.00,,,0.00,Weather View 32 v70,2013-04-16 12:49:00,
2013-04-16 05:54:00,29.5,25.2,30.12,East,85,0.0,0.0,84,0.00,,,0.00,Weather View 32 v70,2013-04-16 12:54:00,
2013-04-16 05:59:00,29.5,25.0,30.12,East,85,0.0,0.0,83,0.00,,,0.00,Weather View 32 v70,2013-04-16 12:59:00,
2013-04-16 06:04:00,29.7,25.1,30.12,East,85,0.0,0.0,83,0.00,,,0.00,Weather View 32 v70,2013-04-16 13:04:00,
2013-04-16 06:09:00,29.7,24.8,30.12,East,85,0.0,0.0,82,0.00,,,0.00,Weather View 32 v70,2013-04-16 13:09:00,
2013-04-16 06:14:00,30.0,24.9,30.12,ENE,69,0.0,0.0,81,0.00,,,0.00,Weather View 32 v70,2013-04-16 13:14:00,
2013-04-16 06:19:00,30.0,24.9,30.15,ENE,74,0.0,0.0,81,0.00,,,0.00,Weather View 32 v70,2013-04-16 13:19:00,
2013-04-16 06:24:00,30.2,24.8,30.15,ENE,69,0.0,0.0,80,0.00,,,0.00,Weather View 32 v70,2013-04-16 13:24:00,
2013-04-16 06:29:00,30.2,24.8,30.15,East,97,0.0,0.0,80,0.00,,,0.00,Weather View 32 v70,2013-04-16 13:29:00,
2013-04-16 06:34:00,30.4,24.9,30.15,East,86,0.0,0.0,80,0.00,,,0.00,Weather View 32 v70,2013-04-16 13:34:00,
2013-04-16 06:39:00,30.2,24.8,30.15,East,87,0.0,0.0,80,0.00,,,0.00,Weather View 32 v70,2013-04-16 13:39:00,
2013-04-16 06:44:00,30.2,25.1,30.15,East,89,0.0,0.0,81,0.00,,,0.00,Weather View 32 v70,2013-04-16 13:44:00,
2013-04-16 06:49:00,30.2,25.4,30.15,East,81,0.0,0.0,82,0.00,,,0.00,Weather View 32 v70,2013-04-16 13:49:00,
2013-04-16 06:54:00,30.2,25.4,30.15,East,84,0.0,0.0,82,0.00,,,0.00,Weather View 32 v70,2013-04-16 13:54:00,
2013-04-16 06:59:00,30.2,25.7,30.15,ENE,77,0.0,0.0,83,0.00,,,0.00,Weather View 32 v70,2013-04-16 13:59:00,
2013-04-16 07:04:00,30.2,25.9,30.15,East,86,0.0,0.0,84,0.00,,,0.00,Weather View 32 v70,2013-04-16 14:04:00,
2013-04-16 07:09:00,30.2,26.2,30.15,ENE,70,0.0,0.0,85,0.00,,,0.00,Weather View 32 v70,2013-04-16 14:09:00,
2013-04-16 07:14:00,30.4,26.4,30.15,East,79,0.0,0.0,85,0.00,,,0.00,Weather View 32 v70,2013-04-16 14:14:00,
2013-04-16 07:19:00,30.4,26.4,30.15,ENE,76,0.0,0.0,85,0.00,,,0.00,Weather View 32 v70,2013-04-16 14:19:00,
2013-04-16 07:24:00,30.6,26.6,30.15,ENE,73,0.0,0.0,85,0.00,,,0.00,Weather View 32 v70,2013-04-16 14:24:00,
2013-04-16 07:29:00,30.7,26.8,30.15,East,82,0.0,0.0,85,0.00,,,0.00,Weather View 32 v70,2013-04-16 14:29:00,
2013-04-16 07:34:00,30.7,26.8,30.15,ENE,63,0.0,0.0,85,0.00,,,0.00,Weather View 32 v70,2013-04-16 14:34:00,
2013-04-16 07:39:00,30.9,26.9,30.15,East,83,0.0,0.0,85,0.00,,,0.00,Weather View 32 v70,2013-04-16 14:39:00,
2013-04-16 07:44:00,30.9,27.2,30.15,East,90,0.0,0.0,86,0.00,,,0.00,Weather View 32 v70,2013-04-16 14:44:00,
2013-04-16 07:49:00,31.1,27.4,30.18,East,79,0.0,0.0,86,0.00,,,0.00,Weather View 32 v70,2013-04-16 14:49:00,
2013-04-16 07:54:00,31.5,27.8,30.18,ENE,76,0.0,0.0,86,0.00,,,0.00,Weather View 32 v70,2013-04-16 14:54:00,
2013-04-16 07:59:00,31.8,27.8,30.18,ENE,71,0.0,0.0,85,0.00,,,0.00,Weather View 32 v70,2013-04-16 14:59:00,
2013-04-16 08:04:00,32.0,27.7,30.18,ENE,64,0.0,0.0,84,0.00,,,0.00,Weather View 32 v70,2013-04-16 15:04:00,
2013-04-16 08:10:00,32.0,27.7,30.18,ENE,68,0.0,0.0,84,0.00,,,0.00,Weather View 32 v70,2013-04-16 15:10:00,
2013-04-16 08:15:00,32.0,27.4,30.18,ENE,74,0.0,0.0,83,0.00,,,0.00,Weather View 32 v70,2013-04-16 15:15:00,
2013-04-16 08:20:00,32.0,27.4,30.18,ENE,69,0.0,0.0,83,0.00,,,0.00,Weather View 32 v70,2013-04-16 15:20:00,
2013-04-16 08:25:00,32.2,27.6,30.18,ENE,65,0.0,0.0,83,0.00,,,0.00,Weather View 32 v70,2013-04-16 15:25:00,
2013-04-16 08:30:00,32.4,27.5,30.18,ENE,74,0.0,0.0,82,0.00,,,0.00,Weather View 32 v70,2013-04-16 15:30:00,
2013-04-16 08:35:00,32.5,27.1,30.18,ENE,76,0.0,0.0,80,0.00,,,0.00,Weather View 32 v70,2013-04-16 15:35:00,
2013-04-16 08:40:00,32.5,27.1,30.18,NE,44,0.0,0.0,80,0.00,,,0.00,Weather View 32 v70,2013-04-16 15:40:00,
2013-04-16 08:45:00,32.9,26.8,30.18,ENE,73,0.0,0.0,78,0.00,,,0.00,Weather View 32 v70,2013-04-16 15:45:00,
2013-04-16 08:50:00,33.3,27.1,30.18,ENE,57,0.0,0.0,78,0.00,,,0.00,Weather View 32 v70,2013-04-16 15:50:00,
2013-04-16 08:55:00,34.3,26.6,30.18,East,85,0.0,0.0,73,0.00,,,0.00,Weather View 32 v70,2013-04-16 15:55:00,
2013-04-16 09:00:00,34.2,24.7,30.18,ENE,64,4.0,8.0,68,0.00,,,0.00,Weather View 32 v70,2013-04-16 16:00:00,
2013-04-16 09:05:00,34.0,25.6,30.18,ENE,72,4.0,8.0,71,0.00,,,0.00,Weather View 32 v70,2013-04-16 16:05:00,
2013-04-16 09:10:00,33.8,25.0,30.18,East,88,7.0,8.0,70,0.00,,,0.00,Weather View 32 v70,2013-04-16 16:10:00,
2013-04-16 09:15:00,33.8,25.7,30.18,ENE,60,4.0,8.0,72,0.00,,,0.00,Weather View 32 v70,2013-04-16 16:15:00,
2013-04-16 09:20:00,34.7,26.3,30.18,ENE,71,5.0,8.0,71,0.00,,,0.00,Weather View 32 v70,2013-04-16 16:20:00,
2013-04-16 09:25:00,35.8,25.5,30.18,ESE,116,6.0,10.0,66,0.04,,,0.04,Weather View 32 v70,2013-04-16 16:25:00,
2013-04-16 09:30:00,36.1,23.2,30.18,ENE,70,6.0,10.0,59,0.04,,,0.04,Weather View 32 v70,2013-04-16 16:30:00,
2013-04-16 09:35:00,36.3,22.1,30.18,SE,137,5.0,10.0,56,0.04,,,0.04,Weather View 32 v70,2013-04-16 16:35:00,
2013-04-16 09:40:00,38.5,22.8,30.18,NE,55,8.0,11.0,53,0.04,,,0.04,Weather View 32 v70,2013-04-16 16:40:00,
2013-04-16 09:45:00,40.1,23.4,30.18,East,99,8.0,11.0,51,0.04,,,0.04,Weather View 32 v70,2013-04-16 16:45:00,
2013-04-16 09:50:00,37.9,20.9,30.18,East,87,6.0,11.0,50,0.04,,,0.04,Weather View 32 v70,2013-04-16 16:50:00,
2013-04-16 09:55:00,36.9,22.2,30.18,ESE,121,5.0,12.0,55,0.04,,,0.04,Weather View 32 v70,2013-04-16 16:55:00,
2013-04-16 10:00:00,37.6,22.4,30.18,ENE,71,3.0,12.0,54,0.04,,,0.04,Weather View 32 v70,2013-04-16 17:00:00,
2013-04-16 10:05:00,37.2,20.7,30.18,ENE,60,7.0,12.0,51,0.04,,,0.04,Weather View 32 v70,2013-04-16 17:05:00,
2013-04-16 10:10:00,37.9,20.5,30.18,ENE,77,8.0,13.0,49,0.04,,,0.04,Weather View 32 v70,2013-04-16 17:10:00,
2013-04-16 10:15:00,41.0,22.8,30.18,ESE,114,10.0,13.0,48,0.04,,,0.04,Weather View 32 v70,2013-04-16 17:15:00,
2013-04-16 10:20:00,41.9,23.6,30.18,East,99,4.0,13.0,48,0.04,,,0.04,Weather View 32 v70,2013-04-16 17:20:00,
2013-04-16 10:25:00,41.5,21.2,30.18,East,88,8.0,13.0,44,0.00,,,0.04,Weather View 32 v70,2013-04-16 17:25:00,
2013-04-16 10:30:00,41.0,22.8,30.18,ENE,59,9.0,13.0,48,0.00,,,0.04,Weather View 32 v70,2013-04-16 17:30:00,
2013-04-16 10:35:00,40.5,21.3,30.18,NE,42,4.0,13.0,46,0.00,,,0.04,Weather View 32 v70,2013-04-16 17:35:00,
2013-04-16 10:40:00,39.6,19.9,30.18,East,95,8.0,13.0,45,0.00,,,0.04,Weather View 32 v70,2013-04-16 17:40:00,
2013-04-16 10:45:00,39.7,19.6,30.18,East,83,6.0,13.0,44,0.00,,,0.04,Weather View 32 v70,2013-04-16 17:45:00,
2013-04-16 10:50:00,42.1,21.2,30.18,SE,146,4.0,13.0,43,0.00,,,0.04,Weather View 32 v70,2013-04-16 17:50:00,
2013-04-16 10:55:00,40.3,19.5,30.18,ENE,76,9.0,13.0,43,0.00,,,0.04,Weather View 32 v70,2013-04-16 17:55:00,
2013-04-16 11:00:00,40.5,21.3,30.18,SE,132,4.0,13.0,46,0.00,,,0.04,Weather View 32 v70,2013-04-16 18:00:00,
2013-04-16 11:05:00,40.5,19.7,30.18,ESE,117,6.0,13.0,43,0.00,,,0.04,Weather View 32 v70,2013-04-16 18:05:00,
2013-04-16 11:10:00,40.8,21.1,30.18,ENE,74,5.0,13.0,45,0.00,,,0.04,Weather View 32 v70,2013-04-16 18:10:00,
2013-04-16 11:15:00,40.8,21.1,30.18,ESE,117,8.0,11.0,45,0.00,,,0.04,Weather View 32 v70,2013-04-16 18:15:00,
2013-04-16 11:20:00,41.0,19.6,30.18,ESE,109,6.0,11.0,42,0.00,,,0.04,Weather View 32 v70,2013-04-16 18:20:00,
2013-04-16 11:25:00,40.6,20.4,30.18,SE,142,11.0,13.0,44,0.00,,,0.04,Weather View 32 v70,2013-04-16 18:25:00,
2013-04-16 11:30:00,40.6,19.9,30.18,SSE,160,6.0,13.0,43,0.00,,,0.04,Weather View 32 v70,2013-04-16 18:30:00,
2013-04-16 11:35:00,40.3,19.0,30.18,ESE,112,11.0,13.0,42,0.00,,,0.04,Weather View 32 v70,2013-04-16 18:35:00,
2013-04-16 11:40:00,39.4,19.8,30.18,SE,130,5.0,16.0,45,0.00,,,0.04,Weather View 32 v70,2013-04-16 18:40:00,
2013-04-16 11:45:00,39.0,19.5,30.18,ESE,107,6.0,16.0,45,0.00,,,0.04,Weather View 32 v70,2013-04-16 18:45:00,
2013-04-16 11:50:00,38.5,21.0,30.21,ENE,68,11.0,16.0,49,0.00,,,0.04,Weather View 32 v70,2013-04-16 18:50:00,
2013-04-16 11:55:00,38.3,21.3,30.21,ENE,74,4.0,16.0,50,0.00,,,0.04,Weather View 32 v70,2013-04-16 18:55:00,
2013-04-16 12:00:00,39.4,20.3,30.21,ENE,71,11.0,16.0,46,0.00,,,0.04,Weather View 32 v70,2013-04-16 19:00:00,
2013-04-16 12:05:00,40.6,22.5,30.21,ESE,121,5.0,16.0,48,0.00,,,0.04,Weather View 32 v70,2013-04-16 19:05:00,
2013-04-16 12:10:00,40.6,20.4,30.21,ENE,61,3.0,16.0,44,0.00,,,0.04,Weather View 32 v70,2013-04-16 19:10:00,
2013-04-16 12:15:00,40.6,20.4,30.21,ESE,111,7.0,16.0,44,0.00,,,0.04,Weather View 32 v70,2013-04-16 19:15:00,
2013-04-16 12:20:00,39.9,19.7,30.18,ENE,77,8.0,16.0,44,0.00,,,0.04,Weather View 32 v70,2013-04-16 19:20:00,
2013-04-16 12:25:00,37.6,22.0,30.18,SE,133,8.0,16.0,53,0.00,,,0.04,Weather View 32 v70,2013-04-16 19:25:00,
2013-04-16 12:30:00,35.8,22.4,30.18,NNE,23,6.0,16.0,58,0.00,,,0.04,Weather View 32 v70,2013-04-16 19:30:00,
2013-04-16 12:35:00,34.5,24.0,30.21,NE,42,4.0,16.0,65,0.00,,,0.04,Weather View 32 v70,2013-04-16 19:35:00,
2013-04-16 12:40:00,34.7,26.6,30.21,NE,50,2.0,11.0,72,0.00,,,0.04,Weather View 32 v70,2013-04-16 19:40:00,
2013-04-16 12:45:00,36.1,26.6,30.21,ENE,73,5.0,11.0,68,0.00,,,0.04,Weather View 32 v70,2013-04-16 19:45:00,
2013-04-16 12:50:00,37.6,23.3,30.21,ENE,74,5.0,11.0,56,0.00,,,0.04,Weather View 32 v70,2013-04-16 19:50:00,
2013-04-16 12:55:00,38.5,23.3,30.21,SE,133,5.0,11.0,54,0.00,,,0.04,Weather View 32 v70,2013-04-16 19:55:00,
2013-04-16 13:00:00,39.7,23.1,30.21,East,89,5.0,11.0,51,0.00,,,0.04,Weather View 32 v70,2013-04-16 20:00:00,
2013-04-16 13:05:00,40.1,20.4,30.18,SW,223,8.0,11.0,45,0.00,,,0.04,Weather View 32 v70,2013-04-16 20:05:00,
2013-04-16 13:10:00,40.1,20.4,30.18,NE,55,8.0,11.0,45,0.00,,,0.04,Weather View 32 v70,2013-04-16 20:10:00,
2013-04-16 13:15:00,40.5,19.7,30.18,East,97,6.0,11.0,43,0.00,,,0.04,Weather View 32 v70,2013-04-16 20:15:00,
2013-04-16 13:21:00,41.2,20.4,30.18,East,92,13.0,14.0,43,0.00,,,0.04,Weather View 32 v70,2013-04-16 20:21:00,
2013-04-16 13:26:00,40.8,20.6,30.18,SE,128,8.0,14.0,44,0.00,,,0.04,Weather View 32 v70,2013-04-16 20:26:00,
2013-04-16 13:31:00,41.4,21.6,30.18,ESE,122,8.0,14.0,45,0.00,,,0.04,Weather View 32 v70,2013-04-16 20:31:00,
2013-04-16 13:36:00,41.9,22.6,30.18,ENE,59,11.0,14.0,46,0.00,,,0.04,Weather View 32 v70,2013-04-16 20:36:00,
2013-04-16 13:41:00,42.3,20.2,30.18,ESE,115,3.0,14.0,41,0.00,,,0.04,Weather View 32 v70,2013-04-16 20:41:00,
2013-04-16 13:46:00,42.4,20.4,30.18,East,95,5.0,14.0,41,0.00,,,0.04,Weather View 32 v70,2013-04-16 20:46:00,
2013-04-16 13:51:00,43.2,20.4,30.18,East,81,5.0,14.0,40,0.00,,,0.04,Weather View 32 v70,2013-04-16 20:51:00,
2013-04-16 13:56:00,43.9,21.1,30.18,NE,49,8.0,14.0,40,0.00,,,0.04,Weather View 32 v70,2013-04-16 20:56:00,
2013-04-16 14:01:00,43.5,20.8,30.18,SE,143,10.0,14.0,40,0.00,,,0.04,Weather View 32 v70,2013-04-16 21:01:00,
2013-04-16 14:06:00,42.1,20.6,30.18,SE,134,8.0,14.0,42,0.00,,,0.04,Weather View 32 v70,2013-04-16 21:06:00,
2013-04-16 14:11:00,41.4,21.6,30.18,SE,135,8.0,16.0,45,0.00,,,0.04,Weather View 32 v70,2013-04-16 21:11:00,
2013-04-16 14:16:00,41.2,20.4,30.18,East,95,8.0,16.0,43,0.00,,,0.04,Weather View 32 v70,2013-04-16 21:16:00,
2013-04-16 14:21:00,41.7,20.3,30.18,ESE,111,10.0,16.0,42,0.00,,,0.04,Weather View 32 v70,2013-04-16 21:21:00,
2013-04-16 14:26:00,43.0,20.9,30.18,ENE,58,6.0,16.0,41,0.00,,,0.04,Weather View 32 v70,2013-04-16 21:26:00,
2013-04-16 14:31:00,43.3,21.2,30.18,ENE,73,6.0,16.0,41,0.00,,,0.04,Weather View 32 v70,2013-04-16 21:31:00,
2013-04-16 14:36:00,44.2,22.0,30.18,NE,46,8.0,16.0,41,0.00,,,0.04,Weather View 32 v70,2013-04-16 21:36:00,
2013-04-16 14:41:00,44.1,21.2,30.18,SE,129,11.0,16.0,40,0.00,,,0.04,Weather View 32 v70,2013-04-16 21:41:00,
2013-04-16 14:46:00,43.7,20.9,30.18,ESE,104,11.0,16.0,40,0.00,,,0.04,Weather View 32 v70,2013-04-16 21:46:00,
2013-04-16 14:51:00,43.7,20.3,30.18,ENE,73,4.0,16.0,39,0.00,,,0.04,Weather View 32 v70,2013-04-16 21:51:00,
2013-04-16 14:56:00,43.7,20.3,30.18,ENE,74,6.0,16.0,39,0.00,,,0.04,Weather View 32 v70,2013-04-16 21:56:00,
2013-04-16 15:01:00,43.5,20.2,30.18,ENE,61,8.0,16.0,39,0.00,,,0.04,Weather View 32 v70,2013-04-16 22:01:00,
2013-04-16 15:06:00,44.8,21.3,30.18,ENE,58,8.0,15.0,39,0.00,,,0.04,Weather View 32 v70,2013-04-16 22:06:00,
2013-04-16 15:11:00,45.0,21.5,30.18,NE,51,8.0,15.0,39,0.00,,,0.04,Weather View 32 v70,2013-04-16 22:11:00,
2013-04-16 15:16:00,43.7,20.3,30.18,East,85,9.0,15.0,39,0.00,,,0.04,Weather View 32 v70,2013-04-16 22:16:00,
2013-04-16 15:21:00,42.8,19.5,30.21,ESE,102,10.0,15.0,39,0.00,,,0.04,Weather View 32 v70,2013-04-16 22:21:00,
2013-04-16 15:26:00,42.3,19.0,30.21,ESE,113,3.0,15.0,39,0.00,,,0.04,Weather View 32 v70,2013-04-16 22:26:00,
2013-04-16 15:31:00,42.8,19.5,30.21,East,87,5.0,15.0,39,0.00,,,0.04,Weather View 32 v70,2013-04-16 22:31:00,
2013-04-16 15:36:00,43.3,20.0,30.18,ENE,74,8.0,15.0,39,0.00,,,0.04,Weather View 32 v70,2013-04-16 22:36:00,
2013-04-16 15:41:00,43.3,20.0,30.18,East,93,8.0,15.0,39,0.00,,,0.04,Weather View 32 v70,2013-04-16 22:41:00,
2013-04-16 15:46:00,43.0,19.7,30.18,ESE,117,8.0,15.0,39,0.00,,,0.04,Weather View 32 v70,2013-04-16 22:46:00,
2013-04-16 15:51:00,43.7,20.3,30.18,ENE,59,3.0,15.0,39,0.00,,,0.04,Weather View 32 v70,2013-04-16 22:51:00,
2013-04-16 15:57:00,43.5,20.2,30.18,East,96,8.0,15.0,39,0.00,,,0.04,Weather View 32 v70,2013-04-16 22:57:00,
2013-04-16 16:01:00,43.5,20.2,30.18,NE,52,5.0,13.0,39,0.00,,,0.04,Weather View 32 v70,2013-04-16 23:01:00,
2013-04-16 16:07:00,43.2,19.8,30.18,ENE,58,6.0,13.0,39,0.00,,,0.04,Weather View 32 v70,2013-04-16 23:07:00,
2013-04-16 16:12:00,42.6,19.4,30.18,East,86,5.0,13.0,39,0.00,,,0.04,Weather View 32 v70,2013-04-16 23:12:00,
2013-04-16 16:17:00,42.8,19.5,30.18,SE,129,6.0,13.0,39,0.00,,,0.04,Weather View 32 v70,2013-04-16 23:17:00,
2013-04-16 16:22:00,42.8,19.5,30.18,ENE,75,8.0,13.0,39,0.04,,,0.04,Weather View 32 v70,2013-04-16 23:22:00,
2013-04-16 16:27:00,43.3,20.0,30.18,East,96,10.0,13.0,39,0.00,,,0.04,Weather View 32 v70,2013-04-16 23:27:00,
2013-04-16 16:32:00,43.3,20.0,30.18,East,83,6.0,13.0,39,0.00,,,0.04,Weather View 32 v70,2013-04-16 23:32:00,
2013-04-16 16:37:00,43.0,19.7,30.18,East,83,8.0,13.0,39,0.00,,,0.04,Weather View 32 v70,2013-04-16 23:37:00,
2013-04-16 16:42:00,42.8,19.5,30.18,East,81,6.0,13.0,39,0.00,,,0.04,Weather View 32 v70,2013-04-16 23:42:00,
2013-04-16 16:47:00,42.8,19.5,30.18,ENE,65,6.0,13.0,39,0.00,,,0.04,Weather View 32 v70,2013-04-16 23:47:00,
2013-04-16 16:52:00,42.6,19.4,30.18,SE,136,3.0,13.0,39,0.00,,,0.04,Weather View 32 v70,2013-04-16 23:52:00,
2013-04-16 16:57:00,42.6,19.4,30.18,East,82,6.0,13.0,39,0.00,,,0.04,Weather View 32 v70,2013-04-16 23:57:00,
2013-04-16 17:02:00,42.4,19.8,30.18,NE,42,3.0,13.0,40,0.00,,,0.04,Weather View 32 v70,2013-04-17 00:02:00,
2013-04-16 17:07:00,42.1,20.6,30.21,NNE,21,4.0,13.0,42,0.00,,,0.04,Weather View 32 v70,2013-04-17 00:07:00,
2013-04-16 17:12:00,41.7,20.8,30.21,North,11,6.0,13.0,43,0.00,,,0.04,Weather View 32 v70,2013-04-17 00:12:00,
2013-04-16 17:17:00,41.5,21.2,30.21,NE,45,9.0,13.0,44,0.00,,,0.04,Weather View 32 v70,2013-04-17 00:17:00,
2013-04-16 17:22:00,41.9,22.1,30.21,ENE,57,6.0,13.0,45,0.00,,,0.04,Weather View 32 v70,2013-04-17 00:22:00,
2013-04-16 17:27:00,41.2,20.4,30.21,ENE,57,6.0,13.0,43,0.00,,,0.04,Weather View 32 v70,2013-04-17 00:27:00,
2013-04-16 17:32:00,40.5,22.3,30.21,NNE,14,8.0,13.0,48,0.00,,,0.04,Weather View 32 v70,2013-04-17 00:32:00,
2013-04-16 17:37:00,39.9,22.8,30.21,NNE,15,7.0,13.0,50,0.00,,,0.04,Weather View 32 v70,2013-04-17 00:37:00,
2013-04-16 17:42:00,39.7,22.1,30.21,NNE,21,8.0,13.0,49,0.00,,,0.04,Weather View 32 v70,2013-04-17 00:42:00,
2013-04-16 17:47:00,39.4,22.3,30.21,ENE,63,4.0,13.0,50,0.00,,,0.04,Weather View 32 v70,2013-04-17 00:47:00,
2013-04-16 17:52:00,39.4,22.3,30.21,NE,45,5.0,13.0,50,0.00,,,0.04,Weather View 32 v70,2013-04-17 00:52:00,
2013-04-16 17:57:00,39.2,21.6,30.21,NNW,346,9.0,13.0,49,0.00,,,0.04,Weather View 32 v70,2013-04-17 00:57:00,
2013-04-16 18:02:00,39.0,21.9,30.21,North,5,10.0,13.0,50,0.00,,,0.04,Weather View 32 v70,2013-04-17 01:02:00,
2013-04-16 18:07:00,38.8,22.2,30.21,NE,39,5.0,13.0,51,0.00,,,0.04,Weather View 32 v70,2013-04-17 01:07:00,
2013-04-16 18:12:00,38.7,23.0,30.21,North,3,6.0,13.0,53,0.00,,,0.04,Weather View 32 v70,2013-04-17 01:12:00,
2013-04-16 18:17:00,38.7,23.0,30.21,ENE,62,6.0,13.0,53,0.00,,,0.04,Weather View 32 v70,2013-04-17 01:17:00,
2013-04-16 18:22:00,38.5,22.8,30.21,NNE,32,5.0,13.0,53,0.00,,,0.04,Weather View 32 v70,2013-04-17 01:22:00,
2013-04-16 18:28:00,38.1,22.9,30.21,NNE,22,11.0,13.0,54,0.00,,,0.04,Weather View 32 v70,2013-04-17 01:28:00,
2013-04-16 18:30:00,37.9,22.8,30.21,ENE,65,4.0,13.0,54,0.00,,,0.04,Weather View 32 v70,2013-04-17 01:30:00,
2013-04-16 18:33:00,37.9,23.2,30.21,NNE,17,8.0,13.0,55,0.00,,,0.04,Weather View 32 v70,2013-04-17 01:33:00,
2013-04-16 18:38:00,37.8,23.0,30.21,NE,48,5.0,13.0,55,0.00,,,0.04,Weather View 32 v70,2013-04-17 01:38:00,
2013-04-16 18:43:00,37.8,23.5,30.21,North,7,4.0,13.0,56,0.00,,,0.04,Weather View 32 v70,2013-04-17 01:43:00,
2013-04-16 18:48:00,37.8,23.5,30.21,ENE,59,3.0,13.0,56,0.00,,,0.04,Weather View 32 v70,2013-04-17 01:48:00,
2013-04-16 18:53:00,37.6,23.3,30.21,NNE,28,5.0,13.0,56,0.00,,,0.04,Weather View 32 v70,2013-04-17 01:53:00,
2013-04-16 18:58:00,37.4,23.1,30.21,NE,37,4.0,11.0,56,0.00,,,0.04,Weather View 32 v70,2013-04-17 01:58:00,
2013-04-16 19:03:00,37.2,23.4,30.24,North,1,5.0,11.0,57,0.00,,,0.04,Weather View 32 v70,2013-04-17 02:03:00,
2013-04-16 19:08:00,37.2,23.8,30.24,NE,44,4.0,11.0,58,0.00,,,0.04,Weather View 32 v70,2013-04-17 02:08:00,
2013-04-16 19:13:00,37.0,23.2,30.24,NE,44,4.0,11.0,57,0.00,,,0.04,Weather View 32 v70,2013-04-17 02:13:00,
2013-04-16 19:18:00,37.0,23.2,30.24,North,0,3.0,11.0,57,0.00,,,0.04,Weather View 32 v70,2013-04-17 02:18:00,
2013-04-16 19:23:00,37.0,22.8,30.24,NE,49,4.0,11.0,56,0.00,,,0.04,Weather View 32 v70,2013-04-17 02:23:00,
2013-04-16 19:28:00,36.5,23.5,30.24,NNE,26,4.0,11.0,59,0.00,,,0.04,Weather View 32 v70,2013-04-17 02:28:00,
2013-04-16 19:30:00,36.1,24.0,30.24,East,81,3.0,8.0,61,0.00,,,0.04,Weather View 32 v70,2013-04-17 02:30:00,
2013-04-16 19:33:00,35.8,24.0,30.24,ENE,59,4.0,8.0,62,0.00,,,0.04,Weather View 32 v70,2013-04-17 02:33:00,
2013-04-16 19:38:00,35.4,24.8,30.24,ENE,59,2.0,8.0,65,0.00,,,0.04,Weather View 32 v70,2013-04-17 02:38:00,
2013-04-16 19:43:00,35.1,25.2,30.24,ENE,59,0.0,8.0,67,0.00,,,0.04,Weather View 32 v70,2013-04-17 02:43:00,
2013-04-16 19:48:00,35.1,25.2,30.24,North,2,4.0,8.0,67,0.00,,,0.04,Weather View 32 v70,2013-04-17 02:48:00,
2013-04-16 19:53:00,35.1,25.9,30.24,NE,46,4.0,8.0,69,0.00,,,0.04,Weather View 32 v70,2013-04-17 02:53:00,
2013-04-16 19:58:00,35.1,26.3,30.24,NE,44,4.0,8.0,70,0.00,,,0.04,Weather View 32 v70,2013-04-17 02:58:00,
2013-04-16 20:03:00,35.1,26.3,30.24,NE,44,0.0,8.0,70,0.00,,,0.04,Weather View 32 v70,2013-04-17 03:03:00,
2013-04-16 20:08:00,35.1,26.6,30.24,NNE,19,3.0,8.0,71,0.00,,,0.04,Weather View 32 v70,2013-04-17 03:08:00,
2013-04-16 20:13:00,35.1,26.3,30.24,NNE,21,0.0,8.0,70,0.00,,,0.04,Weather View 32 v70,2013-04-17 03:13:00,
2013-04-16 20:18:00,35.1,26.3,30.24,NNE,22,4.0,8.0,70,0.00,,,0.04,Weather View 32 v70,2013-04-17 03:18:00,
2013-04-16 20:23:00,35.1,26.3,30.24,North,8,4.0,8.0,70,0.00,,,0.04,Weather View 32 v70,2013-04-17 03:23:00,
2013-04-16 20:28:00,35.1,26.3,30.24,NNE,17,3.0,8.0,70,0.00,,,0.04,Weather View 32 v70,2013-04-17 03:28:00,
2013-04-16 20:33:00,35.1,26.3,30.27,NE,48,0.0,6.0,70,0.00,,,0.04,Weather View 32 v70,2013-04-17 03:33:00,
2013-04-16 20:38:00,35.1,26.3,30.27,NE,55,4.0,6.0,70,0.00,,,0.04,Weather View 32 v70,2013-04-17 03:38:00,
2013-04-16 20:43:00,34.9,25.0,30.27,NE,41,5.0,10.0,67,0.00,,,0.04,Weather View 32 v70,2013-04-17 03:43:00,
2013-04-16 20:48:00,34.9,24.7,30.27,NNE,12,5.0,10.0,66,0.00,,,0.04,Weather View 32 v70,2013-04-17 03:48:00,
2013-04-16 20:53:00,34.9,25.0,30.27,NE,49,4.0,10.0,67,0.00,,,0.04,Weather View 32 v70,2013-04-17 03:53:00,
2013-04-16 20:59:00,34.9,24.7,30.27,East,82,5.0,10.0,66,0.00,,,0.04,Weather View 32 v70,2013-04-17 03:59:00,
2013-04-16 21:00:00,34.9,24.3,30.27,NE,45,5.0,10.0,65,0.00,,,0.04,Weather View 32 v70,2013-04-17 04:00:00,
2013-04-16 21:01:00,34.9,24.3,30.27,NE,48,4.0,10.0,65,0.00,,,0.04,Weather View 32 v70,2013-04-17 04:01:00,
2013-04-16 21:06:00,34.9,24.7,30.27,ENE,63,5.0,10.0,66,0.00,,,0.04,Weather View 32 v70,2013-04-17 04:06:00,
2013-04-16 21:11:00,34.9,25.0,30.27,NE,56,5.0,10.0,67,0.00,,,0.04,Weather View 32 v70,2013-04-17 04:11:00,
2013-04-16 21:16:00,34.7,25.6,30.27,NNE,14,8.0,10.0,69,0.00,,,0.04,Weather View 32 v70,2013-04-17 04:16:00,
2013-04-16 21:21:00,34.5,25.4,30.27,NNE,23,5.0,10.0,69,0.00,,,0.04,Weather View 32 v70,2013-04-17 04:21:00,
2013-04-16 21:26:00,34.5,25.7,30.27,North,9,5.0,10.0,70,0.00,,,0.04,Weather View 32 v70,2013-04-17 04:26:00,
2013-04-16 21:30:00,34.3,25.6,30.27,NE,50,4.0,10.0,70,0.00,,,0.04,Weather View 32 v70,2013-04-17 04:30:00,
2013-04-16 21:31:00,34.3,25.6,30.27,NE,45,4.0,10.0,70,0.00,,,0.04,Weather View 32 v70,2013-04-17 04:31:00,
2013-04-16 21:36:00,34.2,25.0,30.27,NE,39,4.0,10.0,69,0.00,,,0.04,Weather View 32 v70,2013-04-17 04:36:00,
2013-04-16 21:41:00,34.0,25.2,30.27,North,1,6.0,10.0,70,0.00,,,0.04,Weather View 32 v70,2013-04-17 04:41:00,
2013-04-16 21:46:00,33.8,25.4,30.27,North,4,0.0,10.0,71,0.00,,,0.04,Weather View 32 v70,2013-04-17 04:46:00,
2013-04-16 21:51:00,33.6,25.6,30.30,NNE,23,3.0,10.0,72,0.00,,,0.04,Weather View 32 v70,2013-04-17 04:51:00,
2013-04-16 21:56:00,33.4,25.7,30.30,North,353,0.0,10.0,73,0.00,,,0.04,Weather View 32 v70,2013-04-17 04:56:00,
2013-04-16 22:01:00,33.4,25.7,30.30,NNE,28,0.0,10.0,73,0.00,,,0.04,Weather View 32 v70,2013-04-17 05:01:00,
2013-04-16 22:06:00,33.3,25.5,30.30,North,350,4.0,10.0,73,0.00,,,0.04,Weather View 32 v70,2013-04-17 05:06:00,
2013-04-16 22:11:00,33.1,25.4,30.30,NNE,15,5.0,10.0,73,0.00,,,0.04,Weather View 32 v70,2013-04-17 05:11:00,
2013-04-16 22:16:00,33.1,25.4,30.30,NNE,26,2.0,10.0,73,0.00,,,0.04,Weather View 32 v70,2013-04-17 05:16:00,
2013-04-16 22:21:00,32.7,25.0,30.30,NE,45,2.0,8.0,73,0.00,,,0.04,Weather View 32 v70,2013-04-17 05:21:00,
2013-04-16 22:26:00,32.5,25.2,30.30,NNE,21,5.0,8.0,74,0.00,,,0.04,Weather View 32 v70,2013-04-17 05:26:00,
2013-04-16 22:30:00,32.4,25.3,30.30,NNE,26,3.0,8.0,75,0.00,,,0.04,Weather View 32 v70,2013-04-17 05:30:00,
2013-04-16 22:32:00,32.4,25.3,30.30,North,353,4.0,8.0,75,0.00,,,0.04,Weather View 32 v70,2013-04-17 05:32:00,
2013-04-16 22:37:00,32.2,25.1,30.30,NNE,17,5.0,8.0,75,0.00,,,0.04,Weather View 32 v70,2013-04-17 05:37:00,
2013-04-16 22:42:00,32.4,25.3,30.30,NNW,340,4.0,8.0,75,0.00,,,0.04,Weather View 32 v70,2013-04-17 05:42:00,
2013-04-16 22:47:00,32.4,25.3,30.30,NNW,340,3.0,6.0,75,0.00,,,0.04,Weather View 32 v70,2013-04-17 05:47:00,
2013-04-16 22:52:00,32.4,25.6,30.30,NNW,340,0.0,6.0,76,0.00,,,0.04,Weather View 32 v70,2013-04-17 05:52:00,
2013-04-16 22:57:00,32.4,25.6,30.30,NNW,340,4.0,6.0,76,0.00,,,0.04,Weather View 32 v70,2013-04-17 05:57:00,
2013-04-16 23:02:00,32.2,25.5,30.30,NNW,340,0.0,6.0,76,0.00,,,0.04,Weather View 32 v70,2013-04-17 06:02:00,
2013-04-16 23:07:00,32.2,25.1,30.30,NNW,340,0.0,6.0,75,0.00,,,0.04,Weather View 32 v70,2013-04-17 06:07:00,
2013-04-16 23:12:00,32.2,25.1,30.30,NNW,340,0.0,5.0,75,0.00,,,0.04,Weather View 32 v70,2013-04-17 06:12:00,
2013-04-16 23:17:00,32.2,25.1,30.30,NNW,340,0.0,5.0,75,0.00,,,0.04,Weather View 32 v70,2013-04-17 06:17:00,
2013-04-16 23:22:00,32.2,25.5,30.30,NNW,340,2.0,5.0,76,0.00,,,0.04,Weather View 32 v70,2013-04-17 06:22:00,
2013-04-16 23:27:00,32.0,25.3,30.30,NNW,340,3.0,5.0,76,0.00,,,0.04,Weather View 32 v70,2013-04-17 06:27:00,
2013-04-16 23:30:00,32.0,25.3,30.30,NNW,340,0.0,5.0,76,0.00,,,0.04,Weather View 32 v70,2013-04-17 06:30:00,
2013-04-16 23:32:00,32.0,25.3,30.30,NNW,340,3.0,5.0,76,0.00,,,0.04,Weather View 32 v70,2013-04-17 06:32:00,
2013-04-16 23:37:00,32.0,25.3,30.30,NNW,340,3.0,5.0,76,0.00,,,0.04,Weather View 32 v70,2013-04-17 06:37:00,
2013-04-16 23:42:00,31.8,25.1,30.30,NNW,340,3.0,5.0,76,0.00,,,0.04,Weather View 32 v70,2013-04-17 06:42:00,
2013-04-16 23:47:00,31.6,24.6,30.30,NNW,340,0.0,5.0,75,0.00,,,0.04,Weather View 32 v70,2013-04-17 06:47:00,
2013-04-16 23:52:00,31.3,24.3,30.30,NNW,340,0.0,5.0,75,0.00,,,0.04,Weather View 32 v70,2013-04-17 06:52:00,
2013-04-16 23:57:00,31.1,24.1,30.30,NNW,340,0.0,5.0,75,0.00,,,0.04,Weather View 32 v70,2013-04-17 06:57:00,